| time (UTC) | temp C | wind direction | speed KPH | gust KPH | rain 1hr cm | rain 24hr cm | rain mn cm | humidity % | barometer mb |
| 20260504214546 | 10 | 339 | 27.4 | 38.6 | 0.00 | 0.00 | 0.00 | 38 | 1015.9 |
| 20260504213040 | 10 | 340 | 25.7 | 38.6 | 0.00 | 0.00 | 0.00 | 40 | 1015.8 |
| 20260504211545 | 10 | 331 | 19.3 | 32.2 | 0.00 | 0.00 | 0.00 | 42 | 1015.8 |
| 20260504210056 | 10 | 356 | 25.7 | 33.8 | 0.00 | 0.00 | 0.00 | 45 | 1015.9 |
| 20260504204548 | 10 | 349 | 25.7 | 38.6 | 0.00 | 0.00 | 0.00 | 48 | 1015.8 |
| 20260504203045 | 10 | 13 | 25.7 | 37.0 | 0.00 | 0.00 | 0.00 | 48 | 1015.7 |
| 20260504201547 | 10 | 351 | 24.1 | 35.4 | 0.00 | 0.00 | 0.00 | 45 | 1015.7 |
| 20260504200058 | 11 | 336 | 20.9 | 32.2 | 0.00 | 0.00 | 0.00 | 44 | 1015.6 |
| 20260504194545 | 11 | 6 | 16.1 | 24.1 | 0.00 | 0.00 | 0.00 | 44 | 1015.7 |
| 20260504193048 | 10 | 18 | 20.9 | 30.6 | 0.00 | 0.00 | 0.00 | 45 | 1015.7 |
| 20260504191552 | 11 | 352 | 20.9 | 30.6 | 0.00 | 0.00 | 0.00 | 46 | 1015.7 |
| 20260504190042 | 10 | 325 | 12.9 | 22.5 | 0.00 | 0.00 | 0.00 | 49 | 1015.8 |
| 20260504184541 | 10 | 23 | 19.3 | 25.7 | 0.00 | 0.00 | 0.00 | 48 | 1015.8 |
| 20260504183042 | 10 | 333 | 12.9 | 19.3 | 0.00 | 0.00 | 0.00 | 49 | 1015.8 |
| 20260504181542 | 10 | 331 | 8.0 | 16.1 | 0.00 | 0.00 | 0.00 | 51 | 1015.9 |
| 20260504180043 | 10 | 306 | 9.7 | 19.3 | 0.00 | 0.00 | 0.00 | 50 | 1016.0 |
| 20260504174541 | 10 | 304 | 8.0 | 16.1 | 0.00 | 0.00 | 0.00 | 51 | 1016.1 |
| 20260504173046 | 9 | 356 | 6.4 | 11.3 | 0.00 | 0.00 | 0.00 | 52 | 1016.1 |
| 20260504171546 | 9 | 222 | 1.6 | 8.0 | 0.00 | 0.00 | 0.00 | 55 | 1016.1 |
| 20260504081547 | 7 | 321 | 12.9 | 17.7 | 0.00 | 0.00 | 0.00 | 55 | 1015.9 |
| 20260504044547 | 11 | 283 | 4.8 | 9.7 | 0.00 | 0.00 | 0.00 | 43 | 1009.1 |
| 20260504043108 | 11 | 276 | 6.4 | 11.3 | 0.00 | 0.00 | 0.00 | 42 | 1009.1 |
| 20260504041545 | 12 | 277 | 8.0 | 14.5 | 0.00 | 0.00 | 0.00 | 40 | 1009.1 |
| 20260504040044 | 12 | 266 | 8.0 | 11.3 | 0.00 | 0.00 | 0.00 | 41 | 1009.1 |
| 20260504034547 | 12 | 267 | 9.7 | 14.5 | 0.00 | 0.00 | 0.00 | 41 | 1009.0 |
| 20260504033040 | 13 | 277 | 6.4 | 9.7 | 0.00 | 0.00 | 0.00 | 40 | 1008.9 |
| 20260504031550 | 14 | 269 | 4.8 | 9.7 | 0.00 | 0.00 | 0.00 | 37 | 1008.8 |
| 20260504030101 | 15 | 290 | 8.0 | 11.3 | 0.00 | 0.00 | 0.00 | 34 | 1008.8 |
| 20260504024541 | 14 | 302 | 8.0 | 11.3 | 0.00 | 0.00 | 0.00 | 37 | 1008.7 |
| 20260504023043 | 16 | 293 | 6.4 | 11.3 | 0.00 | 0.00 | 0.00 | 34 | 1008.6 |
| 20260504021547 | 17 | 301 | 6.4 | 9.7 | 0.00 | 0.00 | 0.00 | 32 | 1008.7 |
| 20260504020040 | 20 | 295 | 4.8 | 9.7 | 0.00 | 0.00 | 0.00 | 27 | 1008.5 |
| 20260504014546 | 20 | 291 | 9.7 | 16.1 | 0.00 | 0.00 | 0.00 | 23 | 1008.6 |
| 20260504013051 | 21 | 311 | 11.3 | 19.3 | 0.00 | 0.00 | 0.00 | 22 | 1008.6 |
| 20260504011544 | 21 | 293 | 12.9 | 22.5 | 0.00 | 0.00 | 0.00 | 19 | 1008.7 |
| 20260504010054 | 21 | 324 | 12.9 | 19.3 | 0.00 | 0.00 | 0.00 | 21 | 1008.7 |
| 20260504004546 | 21 | 307 | 9.7 | 25.7 | 0.00 | 0.00 | 0.00 | 22 | 1008.8 |
| 20260504003040 | 21 | 304 | 14.5 | 19.3 | 0.00 | 0.00 | 0.00 | 18 | 1009.0 |
| 20260504001553 | 22 | 309 | 11.3 | 20.9 | 0.00 | 0.00 | 0.00 | 17 | 1009.0 |
| 20260504000042 | 22 | 252 | 1.6 | 19.3 | 0.00 | 0.00 | 0.00 | 15 | 1009.0 |
| 20260503234544 | 22 | 284 | 8.0 | 25.7 | 0.00 | 0.00 | 0.00 | 16 | 1009.0 |
| 20260503233040 | 22 | 301 | 12.9 | 19.3 | 0.00 | 0.00 | 0.00 | 16 | 1009.1 |
| 20260503231543 | 22 | 297 | 12.9 | 22.5 | 0.00 | 0.00 | 0.00 | 15 | 1009.1 |
| 20260503230104 | 22 | 272 | 4.8 | 17.7 | 0.00 | 0.00 | 0.00 | 14 | 1009.0 |
| 20260503224546 | 22 | 321 | 14.5 | 20.9 | 0.00 | 0.00 | 0.00 | 15 | 1009.1 |
| 20260503223102 | 22 | 340 | 9.7 | 24.1 | 0.00 | 0.00 | 0.00 | 15 | 1009.3 |
| 20260503221551 | 22 | 302 | 8.0 | 19.3 | 0.00 | 0.00 | 0.00 | 14 | 1009.6 |
| 20260503220050 | 22 | 308 | 12.9 | 27.4 | 0.00 | 0.00 | 0.00 | 13 | 1010.0 |